Hourly Data Report for July 30, 2021

VICTORIA INTL A
BRITISH COLUMBIA
Current Station Operator: NAVCAN

48°38'50.000" N
123°25'33.000" W
19.50 m
1018621
71799
YYJ

Download Data

Hourly Data (July 2021)
Hourly Data Report for July 30, 2021
TIME
LST
Temp Definition
°C
Dew Point Definition
°C
Rel Hum Definition
%
Precip. Amount Definition
mm

Wind Dir Definition
10's deg

Wind Spd Definition
km/h
Visibility Definition
km
Stn Press Definition
kPa
Hmdx Definition


Wind Chill Definition


Weather Definition


00:00 16.2 11.3 72   14 3 32.2 101.30     LegendNANA
01:00 15.1 11.8 80   14 3 32.2 101.31     Mainly Clear
02:00 14.9 11.7 81   13 5 32.2 101.33     LegendNANA
03:00 15.1 12.5 84   36 1 32.2 101.35     LegendNANA
04:00 13.6 13.2 97   12 6 48.3 101.39     Clear
05:00 13.2 12.8 97   36 1 32.2 101.40     LegendNANA
06:00 15.4 12.8 84   24 3 48.3 101.43     LegendNANA
07:00 19.4 13.1 67   29 9 48.3 101.44     Clear
08:00 22.7 13.0 54   29 8 48.3 101.47 25   LegendNANA
09:00 21.1 12.1 56   12 8 48.3 101.48     LegendNANA
10:00 24.5 13.1 49   8 13 48.3 101.44 27   Clear
11:00 25.2 14.1 50   10 12 48.3 101.43 29   LegendNANA
12:00 28.0 14.1 42   10 13 48.3 101.38 31   LegendNANA
13:00 28.9 14.8 41   9 12 48.3 101.32 33   Clear
14:00 28.6 13.8 40   12 10 48.3 101.29 32   LegendNANA
15:00 28.9 13.5 38   13 9 48.3 101.23 32   LegendNANA
16:00 29.6 12.9 35   12 9 48.3 101.19 32   Clear
17:00 28.1 13.5 40   9 9 48.3 101.15 31   LegendNANA
18:00 28.5 13.2 38   13 9 48.3 101.12 31   LegendNANA
19:00 24.1 12.7 48   7 7 48.3 101.11 27   Clear
20:00 20.5 11.8 57   9 7 32.2 101.14     LegendNANA
21:00 19.1 11.6 61   13 3 32.2 101.17     LegendNANA
22:00 19.3 10.7 57   12 5 32.2 101.18     Clear
23:00 19.0 11.4 61   36 3 32.2 101.20     LegendNANA

Notes on Data Quality.

Legend

  • E = Estimated
  • M = Missing
  • NA = Not Available*
  • [empty] = Indicates an unobserved value
Date modified: